• In Belarus
  • List of Countries
  • For 7 days
  • Water Temperature
  • Satellite Maps
  • Weather Map
  • Weather Widgets
  • user-avatar
    Login

    Hourly Weather Dushanbe

    Today, 25 June, Monday

    Time Temperature Precipitation Wind Pressure Humidity
    00:00 +24°C° 0 mm 2 mps 684 mmHg 41%
    01:00 +24°C° 0 mm 2 mps 684 mmHg 42%
    02:00 +23°C° 0 mm 2 mps 684 mmHg 43%
    03:00 +23°C° 0 mm 2 mps 684 mmHg 43%
    04:00 +21°C° 0 mm 2 mps 684 mmHg 44%
    05:00 +21°C° 0 mm 2 mps 683 mmHg 45%
    06:00 +24°C° 0 mm 2 mps 684 mmHg 42%
    07:00 +25°C° 0 mm 2 mps 685 mmHg 39%
    08:00 +27°C° 0 mm 2 mps 685 mmHg 37%
    09:00 +28°C° 0 mm 3 mps 685 mmHg 33%
    10:00 +29°C° 0 mm 3 mps 686 mmHg 29%
    11:00 +30°C° 0 mm 3 mps 686 mmHg 25%
    12:00 +31°C° 0 mm 3 mps 686 mmHg 24%
    13:00 +31°C° 0 mm 3 mps 685 mmHg 23%
    14:00 +33°C° 0 mm 3 mps 685 mmHg 22%
    15:00 +32°C° 0 mm 2 mps 685 mmHg 23%
    16:00 +32°C° 0 mm 2 mps 685 mmHg 23%
    17:00 +32°C° 0 mm 2 mps 685 mmHg 24%
    18:00 +30°C° 0.1 mm 2 mps 684 mmHg 27%
    19:00 +28°C° 0.1 mm 2 mps 684 mmHg 30%
    20:00 +26°C° 0.1 mm 1 mps 684 mmHg 33%
    21:00 +25°C° 0.1 mm 2 mps 684 mmHg 35%
    22:00 +25°C° 0.1 mm 2 mps 684 mmHg 37%
    23:00 +24°C° 0.1 mm 2 mps 684 mmHg 38%

    Tomorrow, 26 June, Tuesday

    Time Temperature Precipitation Wind Pressure Humidity
    00:00 +24°C° 0 mm 2 mps 683 mmHg 39%
    01:00 +23°C° 0 mm 2 mps 683 mmHg 40%
    02:00 +21°C° 0 mm 2 mps 683 mmHg 41%
    03:00 +21°C° 0 mm 2 mps 683 mmHg 41%
    04:00 +21°C° 0 mm 2 mps 683 mmHg 41%
    05:00 +20°C° 0 mm 2 mps 683 mmHg 42%
    06:00 +23°C° 0 mm 2 mps 684 mmHg 38%
    07:00 +25°C° 0 mm 2 mps 684 mmHg 33%
    08:00 +27°C° 0 mm 2 mps 685 mmHg 29%
    09:00 +28°C° 0 mm 2 mps 685 mmHg 28%
    10:00 +29°C° 0 mm 2 mps 685 mmHg 27%
    11:00 +30°C° 0 mm 2 mps 685 mmHg 26%
    12:00 +31°C° 0 mm 2 mps 685 mmHg 26%
    13:00 +31°C° 0 mm 2 mps 685 mmHg 25%
    14:00 +32°C° 0 mm 2 mps 685 mmHg 25%
    15:00 +32°C° 0.1 mm 2 mps 684 mmHg 25%
    16:00 +32°C° 0.1 mm 2 mps 684 mmHg 25%
    17:00 +32°C° 0.1 mm 1 mps 684 mmHg 25%
    18:00 +30°C° 0.1 mm 1 mps 684 mmHg 30%
    19:00 +28°C° 0.1 mm 1 mps 683 mmHg 34%
    20:00 +27°C° 0.1 mm 1 mps 683 mmHg 38%
    21:00 +26°C° 0.1 mm 1 mps 683 mmHg 39%
    22:00 +25°C° 0.1 mm 1 mps 683 mmHg 41%
    23:00 +25°C° 0.1 mm 2 mps 683 mmHg 42%

    Day after tomorrow, 27 June, Wednesday

    Time Temperature Precipitation Wind Pressure Humidity
    00:00 +24°C° 0 mm 2 mps 682 mmHg 43%
    01:00 +24°C° 0 mm 2 mps 682 mmHg 43%
    02:00 +23°C° 0 mm 2 mps 682 mmHg 44%
    03:00 +23°C° 0 mm 2 mps 682 mmHg 44%
    04:00 +21°C° 0 mm 2 mps 682 mmHg 45%
    05:00 +21°C° 0 mm 2 mps 682 mmHg 45%
    06:00 +24°C° 0 mm 2 mps 683 mmHg 41%
    07:00 +26°C° 0 mm 2 mps 683 mmHg 38%
    08:00 +28°C° 0 mm 2 mps 684 mmHg 34%
    09:00 +29°C° 0 mm 2 mps 684 mmHg 31%
    10:00 +30°C° 0 mm 2 mps 684 mmHg 29%
    11:00 +32°C° 0 mm 1 mps 684 mmHg 26%
    12:00 +32°C° 0 mm 2 mps 684 mmHg 25%
    13:00 +34°C° 0 mm 2 mps 684 mmHg 23%
    14:00 +34°C° 0 mm 2 mps 683 mmHg 22%
    15:00 +34°C° 0.1 mm 2 mps 683 mmHg 22%
    16:00 +34°C° 0.1 mm 2 mps 683 mmHg 22%
    17:00 +34°C° 0.1 mm 2 mps 683 mmHg 23%
    18:00 +31°C° 0.1 mm 2 mps 683 mmHg 26%
    19:00 +29°C° 0.1 mm 2 mps 683 mmHg 30%
    20:00 +27°C° 0.1 mm 1 mps 682 mmHg 34%
    21:00 +26°C° 0.1 mm 1 mps 682 mmHg 34%
    22:00 +26°C° 0.1 mm 2 mps 682 mmHg 35%
    23:00 +25°C° 0.1 mm 2 mps 682 mmHg 35%

    28 June, Thursday

    Time Temperature Precipitation Wind Pressure Humidity
    00:00 +25°C° 0 mm 2 mps 682 mmHg 35%
    01:00 +24°C° 0 mm 2 mps 682 mmHg 35%
    02:00 +24°C° 0 mm 3 mps 682 mmHg 35%
    03:00 +22°C° 0 mm 3 mps 682 mmHg 35%
    04:00 +22°C° 0 mm 3 mps 682 mmHg 36%
    05:00 +22°C° 0 mm 3 mps 682 mmHg 36%
    06:00 +25°C° 0 mm 3 mps 683 mmHg 34%
    07:00 +26°C° 0 mm 2 mps 684 mmHg 31%
    08:00 +28°C° 0 mm 2 mps 684 mmHg 28%
    09:00 +30°C° 0 mm 2 mps 684 mmHg 26%
    10:00 +31°C° 0 mm 2 mps 685 mmHg 23%
    11:00 +32°C° 0 mm 2 mps 685 mmHg 20%
    12:00 +34°C° 0 mm 2 mps 685 mmHg 19%
    13:00 +34°C° 0 mm 3 mps 684 mmHg 18%
    14:00 +35°C° 0 mm 3 mps 684 mmHg 18%
    15:00 +35°C° 0 mm 3 mps 684 mmHg 17%
    16:00 +34°C° 0 mm 3 mps 684 mmHg 17%
    17:00 +34°C° 0 mm 3 mps 684 mmHg 17%
    18:00 +31°C° 0 mm 2 mps 684 mmHg 21%
    19:00 +29°C° 0 mm 2 mps 684 mmHg 24%
    20:00 +27°C° 0 mm 2 mps 683 mmHg 27%
    21:00 +26°C° 0 mm 2 mps 684 mmHg 28%
    22:00 +26°C° 0 mm 2 mps 684 mmHg 28%
    23:00 +25°C° 0 mm 2 mps 684 mmHg 29%

    29 June, Friday

    Time Temperature Precipitation Wind Pressure Humidity
    00:00 +25°C° 0 mm 3 mps 683 mmHg 29%
    01:00 +24°C° 0 mm 3 mps 683 mmHg 29%
    02:00 +24°C° 0 mm 3 mps 683 mmHg 30%
    03:00 +24°C° 0 mm 3 mps 683 mmHg 31%
    04:00 +22°C° 0 mm 3 mps 683 mmHg 31%
    05:00 +22°C° 0 mm 3 mps 683 mmHg 32%
    06:00 +25°C° 0 mm 3 mps 684 mmHg 30%
    07:00 +27°C° 0 mm 3 mps 684 mmHg 27%
    08:00 +29°C° 0 mm 3 mps 685 mmHg 24%
    09:00 +30°C° 0 mm 2 mps 685 mmHg 22%
    10:00 +32°C° 0 mm 2 mps 685 mmHg 20%
    11:00 +34°C° 0 mm 2 mps 685 mmHg 18%
    12:00 +34°C° 0 mm 2 mps 685 mmHg 18%
    13:00 +35°C° 0 mm 2 mps 684 mmHg 18%
    14:00 +36°C° 0 mm 2 mps 684 mmHg 17%
    15:00 +35°C° 0 mm 2 mps 684 mmHg 17%
    16:00 +35°C° 0 mm 2 mps 684 mmHg 18%
    17:00 +35°C° 0 mm 2 mps 684 mmHg 18%
    18:00 +32°C° 0 mm 2 mps 683 mmHg 22%
    19:00 +30°C° 0 mm 1 mps 683 mmHg 26%
    20:00 +28°C° 0 mm 1 mps 683 mmHg 30%
    21:00 +27°C° 0 mm 1 mps 683 mmHg 31%
    22:00 +27°C° 0 mm 2 mps 683 mmHg 32%
    23:00 +26°C° 0 mm 2 mps 683 mmHg 32%

    30 June, Saturday

    Time Temperature Precipitation Wind Pressure Humidity
    00:00 +25°C° 0 mm 2 mps 683 mmHg 33%
    01:00 +25°C° 0 mm 2 mps 682 mmHg 33%
    02:00 +25°C° 0 mm 2 mps 682 mmHg 34%
    03:00 +24°C° 0 mm 2 mps 682 mmHg 33%
    04:00 +24°C° 0 mm 2 mps 682 mmHg 33%
    05:00 +24°C° 0 mm 2 mps 682 mmHg 32%
    06:00 +26°C° 0 mm 2 mps 683 mmHg 30%
    07:00 +28°C° 0 mm 2 mps 684 mmHg 27%
    08:00 +30°C° 0 mm 2 mps 684 mmHg 24%
    09:00 +31°C° 0 mm 2 mps 684 mmHg 22%
    10:00 +32°C° 0 mm 2 mps 684 mmHg 21%
    11:00 +34°C° 0 mm 1 mps 685 mmHg 19%
    12:00 +35°C° 0 mm 2 mps 684 mmHg 19%
    13:00 +36°C° 0 mm 2 mps 684 mmHg 18%
    14:00 +36°C° 0 mm 2 mps 684 mmHg 18%
    15:00 +36°C° 0 mm 2 mps 684 mmHg 18%
    16:00 +36°C° 0 mm 2 mps 683 mmHg 19%
    17:00 +36°C° 0 mm 2 mps 683 mmHg 19%
    18:00 +34°C° 0 mm 2 mps 683 mmHg 23%
    19:00 +31°C° 0 mm 1 mps 683 mmHg 26%
    20:00 +29°C° 0 mm 1 mps 682 mmHg 30%
    21:00 +28°C° 0 mm 1 mps 682 mmHg 31%
    22:00 +27°C° 0 mm 1 mps 682 mmHg 32%
    23:00 +27°C° 0 mm 1 mps 682 mmHg 33%
    Show more